Beaver Island, MI

11:47 AM EDT on July 20, 2017 (GMT -0400)
Beaver Island

Weather History for KSJX - October, 2013

Change the Weather History Date:

Saturday, October 12, 2013

  Actual Average Record
Temperature  
Mean Temperature 64 °F -  
Max Temperature 74 °F 56 °F 74 °F (2013)
Min Temperature 53 °F 40 °F 27 °F (2012)
Degree Days  
Heating Degree Days 2    
Growing Degree Days 14 (Base 50)    
Moisture  
Dew Point 52 °F    
Average Humidity 69    
Maximum Humidity 92    
Minimum Humidity 47    
Precipitation  
Precipitation 0.00 in - - ()
Sea Level Pressure  
Sea Level Pressure 29.99 in    
Wind  
Wind Speed 9 mph (SSE)    
Max Wind Speed 18 mph    
Max Gust Speed 25 mph    
Visibility 10 miles    
Events Rain    
Averages and records for this station are not official NWS values.
T = Trace of Precipitation, MM = Missing Value Source: NWS Daily Summary

Daily Weather History Graph

Daily Weather History Graph

Search for Another Location

Airport or City:

Trip Planner

Search our weather history database for the weather conditions in past years. The results will help you decide how hot, cold, wet, or windy it might be!

Date:

Astronomy

Oct. 12, 2013 Rise Set
Actual Time 7:55 AM EDT 7:01 PM EDT
Civil Twilight 7:25 AM EDT 7:31 PM EDT
Nautical Twilight 6:50 AM EDT 8:05 PM EDT
Astronomical Twilight 6:16 AM EDT 8:40 PM EDT
Moon 3:27 PM EDT (10/12) 12:38 AM EDT (10/12)
Length of Visible Light 12h 06m
Length of Day
11h 06m
First Quarter, 58% of the Moon is Illuminated
Oct 12
First Quarter
Oct 18
Full
Oct 26
Last Quarter
Nov 3
New
Nov 10
First Quarter

Hourly Weather History & Observations

Time (EDT) Temp. Dew Point Humidity Pressure Visibility Wind Dir Wind Speed Gust Speed Precip Events Conditions
12:15 AM 55.4 °F 50.0 °F 82% 30.04 in 10.0 mi ESE 5.8 mph - N/A   Clear
12:35 AM 55.0 °F 48.6 °F 79% 30.04 in 10.0 mi ESE 5.8 mph - N/A   Clear
12:56 AM 54.1 °F 47.5 °F 78% 30.04 in 10.0 mi ESE 5.8 mph - N/A   Clear
1:15 AM 54.0 °F 46.6 °F 76% 30.04 in 10.0 mi ESE 6.9 mph - N/A   Clear
1:35 AM 53.6 °F 46.4 °F 77% 30.03 in 10.0 mi ESE 5.8 mph - N/A   Clear
1:56 AM 54.3 °F 46.0 °F 74% 30.03 in 10.0 mi ESE 5.8 mph - N/A   Clear
2:15 AM 55.4 °F 45.1 °F 68% 30.03 in 10.0 mi ESE 6.9 mph - N/A   Clear
2:35 AM 54.5 °F 45.5 °F 72% 30.02 in 10.0 mi ESE 5.8 mph - N/A   Clear
2:56 AM 54.0 °F 45.9 °F 74% 30.03 in 10.0 mi ESE 6.9 mph - N/A   Clear
3:15 AM 54.5 °F 46.4 °F 74% 30.02 in 10.0 mi ESE 6.9 mph - N/A   Clear
3:36 AM 55.4 °F 46.4 °F 72% 30.02 in 10.0 mi ESE 8.1 mph - N/A   Clear
3:55 AM 56.1 °F 46.4 °F 70% 30.02 in 10.0 mi SE 8.1 mph - N/A   Clear
4:15 AM 56.7 °F 47.5 °F 71% 30.01 in 10.0 mi SE 8.1 mph - N/A   Clear
4:36 AM 56.3 °F 48.2 °F 74% 30.02 in 10.0 mi SE 8.1 mph - N/A   Clear
4:55 AM 56.7 °F 48.2 °F 73% 30.01 in 10.0 mi SE 6.9 mph - N/A   Clear
5:15 AM 57.4 °F 48.2 °F 71% 30.01 in 10.0 mi SE 8.1 mph - N/A   Clear
5:36 AM 58.5 °F 48.7 °F 70% 30.01 in 10.0 mi SE 8.1 mph - N/A   Clear
5:55 AM 58.8 °F 49.3 °F 71% 30.01 in 10.0 mi SSE 9.2 mph - N/A   Clear
6:15 AM 59.0 °F 49.5 °F 71% 30.01 in 10.0 mi SE 8.1 mph - N/A   Clear
6:36 AM 59.0 °F 50.0 °F 72% 30.01 in 10.0 mi SE 8.1 mph 17.3 mph N/A   Clear
6:55 AM 58.5 °F 49.6 °F 72% 30.01 in 10.0 mi SE 9.2 mph - N/A   Clear
7:15 AM 58.3 °F 49.3 °F 72% 30.01 in 10.0 mi SE 9.2 mph - N/A   Clear
7:35 AM 58.3 °F 49.1 °F 71% 30.00 in 10.0 mi SE 8.1 mph - N/A   Clear
7:55 AM 58.1 °F 48.7 °F 71% 30.00 in 10.0 mi SE 6.9 mph - N/A   Clear
8:16 AM 58.3 °F 48.2 °F 69% 30.00 in 10.0 mi SE 8.1 mph - N/A   Clear
8:35 AM 59.0 °F 47.8 °F 66% 30.00 in 10.0 mi SE 8.1 mph - N/A   Clear
8:55 AM 59.5 °F 48.4 °F 67% 30.00 in 10.0 mi SE 9.2 mph - N/A   Clear
9:15 AM 60.4 °F 48.6 °F 65% 30.00 in 10.0 mi SE 10.4 mph 17.3 mph N/A   Clear
9:35 AM 61.7 °F 49.1 °F 63% 30.00 in 10.0 mi SSE 9.2 mph - N/A   Clear
9:56 AM 62.6 °F 49.3 °F 62% 30.00 in 10.0 mi SSE 10.4 mph 16.1 mph N/A   Clear
10:15 AM 63.7 °F 49.1 °F 59% 30.00 in 10.0 mi SSE 12.7 mph 16.1 mph N/A   Clear
10:35 AM 64.4 °F 49.6 °F 59% 30.00 in 10.0 mi SSE 8.1 mph 16.1 mph N/A   Clear
10:56 AM 64.9 °F 50.4 °F 59% 30.00 in 10.0 mi SE 10.4 mph - N/A   Clear
11:15 AM 65.7 °F 50.0 °F 57% 30.00 in 10.0 mi SSE 12.7 mph 18.4 mph N/A   Clear
11:35 AM 66.6 °F 50.2 °F 56% 29.99 in 10.0 mi SSE 10.4 mph 17.3 mph N/A   Clear
11:55 AM 67.3 °F 49.5 °F 53% 29.99 in 10.0 mi SSE 15.0 mph 23.0 mph N/A   Clear
12:15 PM 68.2 °F 49.3 °F 51% 29.99 in 10.0 mi SSE 15.0 mph 21.9 mph N/A   Clear
12:36 PM 69.8 °F 50.0 °F 49% 29.98 in 10.0 mi SSE 11.5 mph 24.2 mph N/A   Clear
12:55 PM 70.7 °F 50.2 °F 48% 29.98 in 10.0 mi SSE 12.7 mph 19.6 mph N/A   Clear
1:15 PM 71.6 °F 51.4 °F 49% 29.98 in 10.0 mi SE 11.5 mph 18.4 mph N/A   Clear
1:35 PM 72.3 °F 52.0 °F 49% 29.97 in 10.0 mi SSE 12.7 mph 20.7 mph N/A   Clear
1:55 PM 72.3 °F 52.0 °F 49% 29.96 in 10.0 mi SE 10.4 mph 23.0 mph N/A   Clear
2:16 PM 72.7 °F 51.8 °F 48% 29.95 in 10.0 mi SE 12.7 mph 18.4 mph N/A   Clear
2:35 PM 73.6 °F 52.3 °F 47% 29.94 in 10.0 mi SSE 11.5 mph 21.9 mph N/A   Clear
2:55 PM 73.8 °F 52.7 °F 48% 29.95 in 10.0 mi SSE 9.2 mph 19.6 mph N/A   Clear
3:16 PM 74.3 °F 52.7 °F 47% 29.94 in 10.0 mi SSE 11.5 mph 19.6 mph N/A   Clear
3:35 PM 74.3 °F 52.9 °F 47% 29.93 in 10.0 mi SE 9.2 mph - N/A   Clear
3:55 PM 73.6 °F 52.9 °F 48% 29.93 in 10.0 mi SSE 10.4 mph - N/A   Clear
4:16 PM 72.7 °F 53.1 °F 50% 29.93 in 10.0 mi SE 9.2 mph - N/A   Clear
4:35 PM 73.2 °F 53.4 °F 50% 29.93 in 10.0 mi South 6.9 mph - N/A   Clear
4:55 PM 72.5 °F 54.1 °F 52% 29.93 in 10.0 mi South 5.8 mph - N/A   Clear
5:15 PM 72.0 °F 54.9 °F 55% 29.93 in 10.0 mi SSW 3.5 mph - N/A   Clear
5:35 PM 69.1 °F 57.0 °F 65% 29.95 in 10.0 mi WSW 15.0 mph - N/A   Clear
5:56 PM 66.2 °F 58.3 °F 76% 29.96 in 10.0 mi SW 12.7 mph 18.4 mph N/A   Clear
6:15 PM 65.3 °F 58.8 °F 80% 29.97 in 10.0 mi SW 17.3 mph 24.2 mph N/A   Clear
6:35 PM 65.3 °F 58.3 °F 78% 29.97 in 10.0 mi SSW 16.1 mph 24.2 mph N/A   Mostly Cloudy
6:56 PM 65.3 °F 57.6 °F 76% 29.95 in 10.0 mi SSW 12.7 mph 20.7 mph N/A   Mostly Cloudy
7:15 PM 64.8 °F 58.1 °F 79% 29.96 in 10.0 mi SSW 13.8 mph 25.3 mph N/A   Mostly Cloudy
7:35 PM 63.9 °F 58.5 °F 83% 29.96 in 10.0 mi SSW 12.7 mph 20.7 mph N/A   Drizzle
7:55 PM 62.6 °F 59.4 °F 89% 29.97 in 10.0 mi SSW 12.7 mph 23.0 mph N/A Rain Light Rain
8:15 PM 62.2 °F 59.5 °F 91% 29.97 in 7.0 mi SSW 15.0 mph 21.9 mph N/A Rain Rain
8:35 PM 62.2 °F 59.9 °F 92% 29.97 in 10.0 mi SSW 11.5 mph 19.6 mph N/A Rain Rain
8:55 PM 62.6 °F 59.5 °F 90% 29.96 in 10.0 mi South 10.4 mph - N/A   Overcast
9:16 PM 62.8 °F 60.1 °F 91% 29.97 in 10.0 mi South 11.5 mph 19.6 mph N/A   Overcast
9:35 PM 63.0 °F 60.3 °F 91% 29.97 in 10.0 mi SSW 8.1 mph - N/A   Overcast
9:56 PM 62.8 °F 60.1 °F 91% 29.98 in 10.0 mi South 9.2 mph 18.4 mph N/A   Overcast
10:15 PM 62.8 °F 60.1 °F 91% 29.98 in 10.0 mi SSW 11.5 mph 17.3 mph N/A   Overcast
10:35 PM 62.4 °F 59.4 °F 90% 29.98 in 10.0 mi SW 13.8 mph 19.6 mph N/A   Mostly Cloudy
10:56 PM 61.7 °F 57.2 °F 85% 29.99 in 10.0 mi SW 11.5 mph 19.6 mph N/A   Mostly Cloudy
11:15 PM 61.2 °F 54.9 °F 80% 30.00 in 10.0 mi SW 12.7 mph 18.4 mph N/A   Overcast
11:35 PM 60.3 °F 52.9 °F 77% 30.01 in 10.0 mi WSW 13.8 mph 19.6 mph N/A   Mostly Cloudy
11:56 PM 59.9 °F 48.9 °F 67% 30.01 in 10.0 mi West 18.4 mph 25.3 mph N/A   Mostly Cloudy